BCO1407 SKBO-SVMI

Flight info

Callsign BCO1407
Flight time N/A
Altitude 29000
Route OSUSU4R AKROB DCT KIKAS UP533 PBL ALDAK1
Aircraft A337/H-SDE3GHIJ2J3J5M1RVWXY/LB2D1

Departure

Time N/A
Airport El Dorado International Airport (SKBO)

Arrival

Time 2026-05-03 20:33
Airport Maiquetía Simón Bolívar International Airport (SVMI)
Time Latitude Longitude Altitude Speed Heading
2026-05-03 20:15 10.86991 -68.13023 15604 ft 341 kts 108°
2026-05-03 20:15 10.85983 -68.10859 15028 ft 338 kts 120°
2026-05-03 20:15 10.84737 -68.08840 14455 ft 336 kts 122°
2026-05-03 20:15 10.83464 -68.06852 13889 ft 334 kts 122°
2026-05-03 20:16 10.82201 -68.04873 13293 ft 331 kts 122°
2026-05-03 20:16 10.80955 -68.02907 12686 ft 329 kts 122°
2026-05-03 20:16 10.79734 -68.00971 12055 ft 327 kts 122°
2026-05-03 20:16 10.78507 -67.99020 11445 ft 326 kts 122°
2026-05-03 20:17 10.77288 -67.97078 10871 ft 324 kts 122°
2026-05-03 20:17 10.76082 -67.95156 10335 ft 321 kts 122°
2026-05-03 20:17 10.74884 -67.93247 10033 ft 319 kts 122°
2026-05-03 20:17 10.73704 -67.91365 9961 ft 321 kts 122°
2026-05-03 20:18 10.72506 -67.89454 9947 ft 317 kts 122°
2026-05-03 20:18 10.71355 -67.87621 9942 ft 296 kts 122°
2026-05-03 20:18 10.70272 -67.85895 9947 ft 286 kts 122°
2026-05-03 20:18 10.69204 -67.84193 9952 ft 285 kts 122°
2026-05-03 20:19 10.68140 -67.82495 9951 ft 285 kts 122°
2026-05-03 20:19 10.67073 -67.80794 9955 ft 288 kts 122°
2026-05-03 20:19 10.65981 -67.79054 9951 ft 290 kts 122°
2026-05-03 20:19 10.64926 -67.77374 9942 ft 271 kts 122°
2026-05-03 20:20 10.63944 -67.75811 9950 ft 263 kts 122°
2026-05-03 20:20 10.62962 -67.74248 9952 ft 262 kts 122°
2026-05-03 20:20 10.61976 -67.72678 9950 ft 262 kts 122°
2026-05-03 20:20 10.60995 -67.71115 9949 ft 262 kts 122°
2026-05-03 20:21 10.60015 -67.69555 9950 ft 262 kts 122°
2026-05-03 20:21 10.59050 -67.67983 9844 ft 263 kts 118°
2026-05-03 20:21 10.58375 -67.66270 9571 ft 261 kts 102°
2026-05-03 20:21 10.58212 -67.64445 9295 ft 260 kts 91°
2026-05-03 20:22 10.58258 -67.62606 9048 ft 260 kts 89°
2026-05-03 20:22 10.58336 -67.60768 8824 ft 260 kts 89°
2026-05-03 20:22 10.58412 -67.58938 8609 ft 258 kts 89°
2026-05-03 20:22 10.58482 -67.57143 8379 ft 256 kts 89°
2026-05-03 20:23 10.58549 -67.55354 8152 ft 250 kts 90°
2026-05-03 20:23 10.58613 -67.53599 7906 ft 247 kts 90°
2026-05-03 20:23 10.58674 -67.51849 7676 ft 248 kts 90°
2026-05-03 20:23 10.58734 -67.50096 7432 ft 247 kts 90°
2026-05-03 20:24 10.58795 -67.48348 7196 ft 247 kts 90°
2026-05-03 20:24 10.58854 -67.46608 6952 ft 246 kts 90°
2026-05-03 20:24 10.58913 -67.44889 6706 ft 246 kts 90°
2026-05-03 20:24 10.58973 -67.43167 6485 ft 240 kts 90°
2026-05-03 20:25 10.59031 -67.41494 6224 ft 233 kts 90°
2026-05-03 20:25 10.59087 -67.39883 5965 ft 224 kts 90°
2026-05-03 20:25 10.59140 -67.38310 5689 ft 221 kts 90°
2026-05-03 20:25 10.59193 -67.36748 5425 ft 220 kts 90°
2026-05-03 20:26 10.59244 -67.35200 5162 ft 219 kts 90°
2026-05-03 20:26 10.59296 -67.33653 4899 ft 218 kts 89°
2026-05-03 20:26 10.59347 -67.32135 4650 ft 218 kts 89°
2026-05-03 20:26 10.59399 -67.30595 4380 ft 217 kts 89°
2026-05-03 20:27 10.59451 -67.29062 4111 ft 216 kts 89°
2026-05-03 20:27 10.59502 -67.27533 3986 ft 216 kts 88°
2026-05-03 20:27 10.59554 -67.26000 3980 ft 217 kts 88°
2026-05-03 20:27 10.59605 -67.24474 3979 ft 215 kts 88°
2026-05-03 20:28 10.59655 -67.23013 3976 ft 200 kts 88°
2026-05-03 20:28 10.59702 -67.21618 4000 ft 196 kts 89°
2026-05-03 20:28 10.59743 -67.20257 3961 ft 194 kts 89°
2026-05-03 20:28 10.59781 -67.18895 3799 ft 189 kts 89°
2026-05-03 20:29 10.59816 -67.17580 3577 ft 182 kts 89°
2026-05-03 20:29 10.59849 -67.16326 3288 ft 175 kts 88°
2026-05-03 20:29 10.59881 -67.15105 2938 ft 168 kts 88°
2026-05-03 20:29 10.59912 -67.13946 2639 ft 161 kts 89°
2026-05-03 20:30 10.59941 -67.12832 2432 ft 153 kts 89°
2026-05-03 20:30 10.59968 -67.11774 2226 ft 146 kts 89°
2026-05-03 20:30 10.59995 -67.10747 2032 ft 145 kts 88°
2026-05-03 20:30 10.60022 -67.09720 1838 ft 145 kts 88°
2026-05-03 20:31 10.60049 -67.08693 1655 ft 146 kts 88°
2026-05-03 20:31 10.60078 -67.07675 1446 ft 145 kts 88°
2026-05-03 20:31 10.60113 -67.06653 1255 ft 144 kts 88°
2026-05-03 20:31 10.60167 -67.05639 1046 ft 143 kts 85°
2026-05-03 20:32 10.60265 -67.04632 808 ft 143 kts 86°
2026-05-03 20:32 10.60325 -67.03630 642 ft 141 kts 89°
2026-05-03 20:32 10.60343 -67.02632 498 ft 141 kts 90°
2026-05-03 20:32 10.60373 -67.01631 355 ft 141 kts 89°
2026-05-03 20:33 10.60409 -67.00647 238 ft 132 kts 89°
2026-05-03 20:33 10.60427 -66.99913 225 ft 65 kts 88°
2026-05-03 20:33 10.60355 -66.99677 219 ft 22 kts 178°
2026-05-03 20:33 10.60335 -66.99677 217 ft 0 kts 180°
2026-05-03 20:34 10.60334 -66.99677 217 ft 0 kts 180°
2026-05-03 20:37 10.60333 -66.99677 217 ft 1 kts 180°
2026-05-03 20:37 10.60300 -66.99675 216 ft 8 kts 177°
2026-05-03 20:37 10.60232 -66.99672 216 ft 11 kts 177°
2026-05-03 20:38 10.60157 -66.99669 211 ft 10 kts 177°
2026-05-03 20:38 10.60107 -66.99666 220 ft 5 kts 177°
2026-05-03 20:38 10.60095 -66.99666 220 ft 0 kts 177°
2026-05-03 20:38 10.60080 -66.99665 225 ft 2 kts 179°
2026-05-03 20:39 10.60057 -66.99665 228 ft 6 kts 179°
2026-05-03 20:39 10.59998 -66.99664 232 ft 10 kts 179°
2026-05-03 20:39 10.59934 -66.99671 230 ft 8 kts 205°
2026-05-03 20:39 10.59893 -66.99703 227 ft 7 kts 216°
2026-05-03 20:40 10.59848 -66.99703 233 ft 8 kts 148°
2026-05-03 20:40 10.59820 -66.99639 231 ft 12 kts 104°
2026-05-03 20:40 10.59796 -66.99543 218 ft 15 kts 99°
2026-05-03 20:40 10.59810 -66.99429 219 ft 18 kts 76°
2026-05-03 20:41 10.59840 -66.99309 212 ft 16 kts 75°
2026-05-03 20:41 10.59872 -66.99188 205 ft 20 kts 75°
2026-05-03 20:41 10.59893 -66.99107 211 ft 10 kts 75°
2026-05-03 20:41 10.59911 -66.99027 202 ft 14 kts 77°
2026-05-03 20:42 10.59933 -66.98926 200 ft 15 kts 73°
2026-05-03 20:42 10.59961 -66.98814 202 ft 18 kts 76°
2026-05-03 20:42 10.59993 -66.98682 185 ft 17 kts 76°
2026-05-03 20:42 10.60029 -66.98563 180 ft 18 kts 65°
2026-05-03 20:43 10.60067 -66.98481 178 ft 9 kts 65°
2026-05-03 20:43 10.60090 -66.98419 177 ft 10 kts 71°
2026-05-03 20:43 10.60109 -66.98341 174 ft 12 kts 88°
2026-05-03 20:43 10.60069 -66.98324 174 ft 5 kts 207°
2026-05-03 20:44 10.60049 -66.98338 174 ft 3 kts 213°